Location: ????????
(48.4751°N, 37.6926°E)
Time: 13:39:20
(UTC+00:00)

Cosmos 2026 Rocket - Pass Details

Date: 20 January 2021
Orbit: 940 x 1000 km, 82.9° (Epoch: 26 February)

Event Time Altitude Azimuth Distance (km) Brightness Sun altitude
Rises 16:02:48 0° 164° (SSE) 3,601 6.9 -18.5°
Reaches altitude 10° 16:05:23 10° 158° (SSE) 2,666 6.2 -18.9°
Maximum altitude 16:11:04 43° 89° (E) 1,324 4.2 -19.8°
Drops below altitude 10° 16:16:51 10° 20° (NNE) 2,719 6.1 -20.8°
Sets 16:19:30 0° 14° (NNE) 3,679 6.8 -21.2°
